When you browse on this site, cookies collect data to enhance your experience and personalize the content and advertising you see.
Visit our Privacy Policy to learn more. By continuing to use the site, you agree to this use of cookies and data.
  • In Portugal
  • List of Countries
  • For 7 days
  • Water Temperature
  • Satellite Maps
  • Weather Map
  • Weather Widgets
  • user-avatar
    Login

    Hourly Weather Byala

    Today, 23 April, Tuesday

    Time Temperature Precipitation Wind Pressure Humidity
    00:00 +6°C° 0 mm 2 mps 758 mmHg 71%
    01:00 +6°C° 0 mm 2 mps 758 mmHg 73%
    02:00 +6°C° 0 mm 2 mps 758 mmHg 75%
    03:00 +6°C° 0 mm 2 mps 758 mmHg 77%
    04:00 +6°C° 0 mm 2 mps 758 mmHg 78%
    05:00 +6°C° 0 mm 2 mps 758 mmHg 80%
    06:00 +7°C° 0 mm 2 mps 758 mmHg 75%
    07:00 +9°C° 0 mm 3 mps 758 mmHg 71%
    08:00 +10°C° 0 mm 3 mps 759 mmHg 67%
    09:00 +11°C° 0 mm 3 mps 759 mmHg 62%
    10:00 +12°C° 0 mm 3 mps 759 mmHg 58%
    11:00 +13°C° 0 mm 3 mps 759 mmHg 53%
    12:00 +13°C° 0 mm 3 mps 759 mmHg 53%
    13:00 +13°C° 0 mm 4 mps 759 mmHg 52%
    14:00 +13°C° 0 mm 4 mps 759 mmHg 51%
    15:00 +13°C° 0 mm 4 mps 759 mmHg 54%
    16:00 +12°C° 0 mm 4 mps 759 mmHg 57%
    17:00 +12°C° 0 mm 4 mps 758 mmHg 59%
    18:00 +11°C° 0 mm 3 mps 758 mmHg 65%
    19:00 +10°C° 0 mm 3 mps 758 mmHg 71%
    20:00 +9°C° 0 mm 3 mps 759 mmHg 77%
    21:00 +9°C° 0 mm 3 mps 759 mmHg 77%
    22:00 +9°C° 0 mm 3 mps 758 mmHg 78%
    23:00 +8°C° 0 mm 4 mps 758 mmHg 78%

    Tomorrow, 24 April, Wednesday

    Time Temperature Precipitation Wind Pressure Humidity
    00:00 +8°C° 0 mm 4 mps 758 mmHg 79%
    01:00 +8°C° 0 mm 4 mps 758 mmHg 79%
    02:00 +8°C° 0 mm 4 mps 758 mmHg 80%
    03:00 +8°C° 0 mm 4 mps 758 mmHg 82%
    04:00 +8°C° 0 mm 4 mps 758 mmHg 85%
    05:00 +7°C° 0 mm 4 mps 758 mmHg 88%
    06:00 +8°C° 0 mm 4 mps 758 mmHg 84%
    07:00 +11°C° 0 mm 4 mps 758 mmHg 80%
    08:00 +12°C° 0 mm 4 mps 758 mmHg 76%
    09:00 +13°C° 0 mm 4 mps 758 mmHg 73%
    10:00 +14°C° 0 mm 4 mps 759 mmHg 69%
    11:00 +15°C° 0 mm 4 mps 759 mmHg 66%
    12:00 +15°C° 0 mm 4 mps 758 mmHg 66%
    13:00 +15°C° 0 mm 5 mps 758 mmHg 67%
    14:00 +15°C° 0 mm 5 mps 758 mmHg 67%
    15:00 +15°C° 0 mm 5 mps 758 mmHg 70%
    16:00 +14°C° 0 mm 5 mps 758 mmHg 72%
    17:00 +13°C° 0 mm 5 mps 758 mmHg 75%
    18:00 +12°C° 0 mm 4 mps 758 mmHg 79%
    19:00 +10°C° 0 mm 3 mps 758 mmHg 84%
    20:00 +9°C° 0 mm 3 mps 758 mmHg 89%
    21:00 +9°C° 0 mm 2 mps 759 mmHg 89%
    22:00 +9°C° 0 mm 2 mps 759 mmHg 89%
    23:00 +9°C° 0 mm 2 mps 759 mmHg 89%

    Day after tomorrow, 25 April, Thursday

    Time Temperature Precipitation Wind Pressure Humidity
    00:00 +8°C° 0 mm 2 mps 759 mmHg 89%
    01:00 +8°C° 0 mm 2 mps 759 mmHg 89%
    02:00 +8°C° 0 mm 2 mps 759 mmHg 89%
    03:00 +8°C° 0 mm 2 mps 759 mmHg 90%
    04:00 +8°C° 0 mm 2 mps 759 mmHg 90%
    05:00 +8°C° 0 mm 2 mps 759 mmHg 91%
    06:00 +9°C° 0 mm 2 mps 759 mmHg 85%
    07:00 +12°C° 0 mm 2 mps 759 mmHg 79%
    08:00 +13°C° 0 mm 2 mps 759 mmHg 73%
    09:00 +14°C° 0 mm 2 mps 760 mmHg 68%
    10:00 +16°C° 0 mm 3 mps 760 mmHg 64%
    11:00 +17°C° 0 mm 3 mps 760 mmHg 59%
    12:00 +17°C° 0 mm 3 mps 759 mmHg 58%
    13:00 +17°C° 0 mm 4 mps 759 mmHg 58%
    14:00 +17°C° 0 mm 4 mps 759 mmHg 57%
    15:00 +15°C° 0 mm 4 mps 759 mmHg 61%
    16:00 +15°C° 0 mm 4 mps 758 mmHg 65%
    17:00 +14°C° 0 mm 4 mps 758 mmHg 69%
    18:00 +12°C° 0 mm 3 mps 758 mmHg 76%
    19:00 +11°C° 0 mm 3 mps 758 mmHg 83%
    20:00 +9°C° 0 mm 2 mps 758 mmHg 90%
    21:00 +9°C° 0 mm 2 mps 758 mmHg 91%
    22:00 +9°C° 0 mm 2 mps 758 mmHg 91%
    23:00 +8°C° 0 mm 2 mps 758 mmHg 92%

    26 April, Friday

    Time Temperature Precipitation Wind Pressure Humidity
    00:00 +8°C° 0 mm 2 mps 758 mmHg 92%
    01:00 +8°C° 0 mm 2 mps 758 mmHg 91%
    02:00 +8°C° 0 mm 2 mps 758 mmHg 91%
    03:00 +8°C° 0 mm 2 mps 758 mmHg 91%
    04:00 +8°C° 0 mm 2 mps 757 mmHg 91%
    05:00 +7°C° 0 mm 2 mps 757 mmHg 91%
    06:00 +9°C° 0 mm 2 mps 757 mmHg 85%
    07:00 +12°C° 0 mm 2 mps 758 mmHg 78%
    08:00 +13°C° 0 mm 2 mps 758 mmHg 72%
    09:00 +14°C° 0 mm 3 mps 758 mmHg 67%
    10:00 +16°C° 0 mm 3 mps 758 mmHg 61%
    11:00 +17°C° 0 mm 4 mps 758 mmHg 56%
    12:00 +17°C° 0 mm 4 mps 758 mmHg 56%
    13:00 +17°C° 0 mm 4 mps 757 mmHg 56%
    14:00 +17°C° 0 mm 4 mps 757 mmHg 55%
    15:00 +17°C° 0 mm 4 mps 757 mmHg 58%
    16:00 +16°C° 0 mm 3 mps 756 mmHg 61%
    17:00 +14°C° 0 mm 3 mps 756 mmHg 64%
    18:00 +13°C° 0 mm 3 mps 756 mmHg 71%
    19:00 +12°C° 0 mm 2 mps 756 mmHg 77%
    20:00 +9°C° 0 mm 2 mps 756 mmHg 84%
    21:00 +10°C° 0 mm 1 mps 756 mmHg 85%
    22:00 +10°C° 0 mm 1 mps 756 mmHg 86%
    23:00 +9°C° 0 mm 1 mps 756 mmHg 87%

    27 April, Saturday

    Time Temperature Precipitation Wind Pressure Humidity
    00:00 +9°C° 0 mm 1 mps 756 mmHg 87%
    01:00 +8°C° 0 mm 0 mps 756 mmHg 88%
    02:00 +8°C° 0 mm 0 mps 755 mmHg 88%
    03:00 +8°C° 0 mm 0 mps 755 mmHg 88%
    04:00 +8°C° 0 mm 0 mps 755 mmHg 88%
    05:00 +8°C° 0 mm 0 mps 755 mmHg 88%
    06:00 +10°C° 0 mm 1 mps 755 mmHg 82%
    07:00 +12°C° 0 mm 1 mps 755 mmHg 76%
    08:00 +14°C° 0 mm 1 mps 755 mmHg 70%
    09:00 +15°C° 0 mm 2 mps 755 mmHg 67%
    10:00 +17°C° 0 mm 2 mps 755 mmHg 63%
    11:00 +18°C° 0 mm 3 mps 754 mmHg 60%
    12:00 +18°C° 0 mm 3 mps 754 mmHg 59%
    13:00 +18°C° 0 mm 3 mps 754 mmHg 59%
    14:00 +18°C° 0 mm 3 mps 753 mmHg 59%
    15:00 +17°C° 0 mm 3 mps 753 mmHg 62%
    16:00 +17°C° 0 mm 3 mps 753 mmHg 65%
    17:00 +16°C° 0 mm 3 mps 752 mmHg 68%
    18:00 +13°C° 0 mm 3 mps 752 mmHg 74%
    19:00 +13°C° 0 mm 2 mps 752 mmHg 80%
    20:00 +12°C° 0 mm 2 mps 752 mmHg 86%
    21:00 +10°C° 0 mm 2 mps 752 mmHg 85%
    22:00 +10°C° 0 mm 2 mps 752 mmHg 84%
    23:00 +10°C° 0 mm 2 mps 752 mmHg 83%

    28 April, Sunday

    Time Temperature Precipitation Wind Pressure Humidity
    00:00 +10°C° 0 mm 2 mps 752 mmHg 81%
    01:00 +11°C° 0 mm 1 mps 751 mmHg 80%
    02:00 +10°C° 0 mm 1 mps 751 mmHg 78%
    03:00 +10°C° 0 mm 1 mps 751 mmHg 78%
    04:00 +10°C° 0 mm 1 mps 750 mmHg 78%
    05:00 +10°C° 0 mm 1 mps 750 mmHg 78%
    06:00 +11°C° 0 mm 1 mps 750 mmHg 73%
    07:00 +13°C° 0 mm 1 mps 750 mmHg 69%
    08:00 +14°C° 0 mm 1 mps 750 mmHg 65%
    09:00 +15°C° 0 mm 1 mps 750 mmHg 62%
    10:00 +16°C° 0 mm 1 mps 750 mmHg 59%
    11:00 +18°C° 0 mm 1 mps 750 mmHg 56%
    12:00 +18°C° 0 mm 2 mps 750 mmHg 56%
    13:00 +19°C° 0 mm 2 mps 750 mmHg 55%
    14:00 +20°C° 0 mm 2 mps 749 mmHg 55%
    15:00 +19°C° 0 mm 3 mps 749 mmHg 57%
    16:00 +17°C° 0 mm 3 mps 749 mmHg 59%
    17:00 +16°C° 0 mm 3 mps 749 mmHg 60%
    18:00 +15°C° 0.1 mm 2 mps 749 mmHg 65%
    19:00 +14°C° 0.1 mm 2 mps 749 mmHg 69%
    20:00 +13°C° 0.1 mm 1 mps 749 mmHg 73%
    21:00 +13°C° 0.1 mm 1 mps 750 mmHg 76%
    22:00 +13°C° 0.1 mm 1 mps 750 mmHg 79%
    23:00 +13°C° 0.1 mm 1 mps 750 mmHg 82%
    Show more